Time,TemperatureF,DewpointF,PressureIn,WindDirection,WindDirectionDegrees,WindSpeedMPH,WindSpeedGustMPH,Humidity,HourlyPrecipIn,Conditions,Clouds,dailyrainin,SoftwareType,DateUTC
2013-09-14 00:00:00,58.0,51.0,29.82,NW,311,0.0,2.0,77,0.00,,,0.08,weatherlink.com 1.10,2013-09-14 04:00:00,
2013-09-14 00:15:00,57.5,51.0,29.82,WNW,284,0.0,1.0,78,0.00,,,0.00,weatherlink.com 1.10,2013-09-14 04:15:00,
2013-09-14 00:30:00,56.9,51.0,29.82,WNW,295,0.0,3.0,80,0.00,,,0.00,weatherlink.com 1.10,2013-09-14 04:30:00,
2013-09-14 00:46:00,56.4,51.0,29.82,WNW,292,0.0,2.0,81,0.00,,,0.00,weatherlink.com 1.10,2013-09-14 04:46:00,
2013-09-14 01:01:00,56.0,50.0,29.82,WNW,286,0.0,2.0,81,0.00,,,0.00,weatherlink.com 1.10,2013-09-14 05:01:00,
2013-09-14 01:16:00,56.0,50.0,29.82,West,275,0.0,6.0,81,0.00,,,0.00,weatherlink.com 1.10,2013-09-14 05:16:00,
2013-09-14 01:31:00,56.0,50.0,29.83,WNW,294,1.0,4.0,80,0.00,,,0.00,weatherlink.com 1.10,2013-09-14 05:31:00,
2013-09-14 01:46:00,55.8,50.0,29.83,SSE,160,0.0,8.0,80,0.00,,,0.00,weatherlink.com 1.10,2013-09-14 05:46:00,
2013-09-14 02:01:00,55.7,50.0,29.84,WNW,298,3.0,3.0,80,0.00,,,0.00,weatherlink.com 1.10,2013-09-14 06:01:00,
2013-09-14 02:16:00,55.4,50.0,29.84,NNW,333,1.0,1.0,81,0.00,,,0.00,weatherlink.com 1.10,2013-09-14 06:16:00,
2013-09-14 02:31:00,54.9,50.0,29.84,NNW,333,0.0,1.0,82,0.00,,,0.00,weatherlink.com 1.10,2013-09-14 06:31:00,
2013-09-14 02:46:00,54.5,49.0,29.84,WNW,289,0.0,3.0,83,0.00,,,0.00,weatherlink.com 1.10,2013-09-14 06:46:00,
2013-09-14 03:01:00,54.3,49.0,29.84,WNW,298,1.0,4.0,83,0.00,,,0.00,weatherlink.com 1.10,2013-09-14 07:01:00,
2013-09-14 03:16:00,54.1,49.0,29.84,WNW,285,3.0,5.0,83,0.00,,,0.00,weatherlink.com 1.10,2013-09-14 07:16:00,
2013-09-14 03:31:00,54.0,49.0,29.84,WNW,291,1.0,3.0,83,0.00,,,0.00,weatherlink.com 1.10,2013-09-14 07:31:00,
2013-09-14 03:46:00,53.8,49.0,29.84,WNW,291,0.0,0.0,84,0.00,,,0.00,weatherlink.com 1.10,2013-09-14 07:46:00,
2013-09-14 04:01:00,53.4,49.0,29.85,WNW,291,0.0,1.0,84,0.00,,,0.00,weatherlink.com 1.10,2013-09-14 08:01:00,
2013-09-14 04:16:00,53.0,49.0,29.85,WNW,294,0.0,0.0,85,0.00,,,0.00,weatherlink.com 1.10,2013-09-14 08:16:00,
2013-09-14 04:31:00,52.6,48.0,29.85,WNW,294,0.0,2.0,85,0.00,,,0.00,weatherlink.com 1.10,2013-09-14 08:31:00,
2013-09-14 04:46:00,52.3,48.0,29.85,WNW,294,0.0,0.0,86,0.00,,,0.00,weatherlink.com 1.10,2013-09-14 08:46:00,
2013-09-14 05:01:00,51.9,48.0,29.86,WNW,294,0.0,0.0,87,0.00,,,0.00,weatherlink.com 1.10,2013-09-14 09:01:00,
2013-09-14 05:16:00,51.4,48.0,29.86,WNW,294,0.0,1.0,88,0.00,,,0.00,weatherlink.com 1.10,2013-09-14 09:16:00,
2013-09-14 05:31:00,51.3,48.0,29.86,WNW,294,0.0,1.0,89,0.00,,,0.00,weatherlink.com 1.10,2013-09-14 09:31:00,
2013-09-14 05:46:00,51.5,48.0,29.87,WSW,254,0.0,3.0,87,0.00,,,0.00,weatherlink.com 1.10,2013-09-14 09:46:00,
2013-09-14 06:01:00,51.5,48.0,29.88,NE,43,0.0,0.0,86,0.00,,,0.00,weatherlink.com 1.10,2013-09-14 10:01:00,
2013-09-14 06:16:00,51.2,47.0,29.88,NE,43,0.0,0.0,86,0.00,,,0.00,weatherlink.com 1.10,2013-09-14 10:16:00,
2013-09-14 06:31:00,50.6,47.0,29.89,NE,43,0.0,0.0,87,0.00,,,0.00,weatherlink.com 1.10,2013-09-14 10:31:00,
2013-09-14 06:46:00,50.1,47.0,29.89,NE,43,0.0,0.0,89,0.00,,,0.00,weatherlink.com 1.10,2013-09-14 10:46:00,
2013-09-14 07:01:00,49.7,47.0,29.90,NE,43,0.0,0.0,90,0.00,,,0.00,weatherlink.com 1.10,2013-09-14 11:01:00,
2013-09-14 07:16:00,49.9,47.0,29.91,SE,139,0.0,2.0,91,0.00,,,0.00,weatherlink.com 1.10,2013-09-14 11:16:00,
2013-09-14 07:31:00,50.4,47.0,29.91,SE,140,0.0,1.0,89,0.00,,,0.00,weatherlink.com 1.10,2013-09-14 11:31:00,
2013-09-14 07:46:00,51.6,48.0,29.92,NE,47,0.0,2.0,86,0.00,,,0.00,weatherlink.com 1.10,2013-09-14 11:46:00,
2013-09-14 08:01:00,53.0,48.0,29.92,East,84,2.0,4.0,82,0.00,,,0.00,weatherlink.com 1.10,2013-09-14 12:01:00,
2013-09-14 08:16:00,54.5,47.0,29.92,WNW,294,0.0,3.0,77,0.00,,,0.00,weatherlink.com 1.10,2013-09-14 12:16:00,
2013-09-14 08:31:00,55.9,47.0,29.92,NNW,333,0.0,3.0,73,0.00,,,0.00,weatherlink.com 1.10,2013-09-14 12:31:00,
2013-09-14 08:46:00,57.1,48.0,29.93,West,279,1.0,3.0,71,0.00,,,0.00,weatherlink.com 1.10,2013-09-14 12:46:00,
2013-09-14 09:02:00,59.3,48.0,29.93,SSW,197,3.0,6.0,67,0.00,,,0.00,weatherlink.com 1.10,2013-09-14 13:02:00,
2013-09-14 09:17:00,60.7,48.0,29.93,WNW,289,0.0,6.0,64,0.00,,,0.00,weatherlink.com 1.10,2013-09-14 13:17:00,
2013-09-14 09:32:00,61.6,48.0,29.93,NW,313,0.0,5.0,62,0.00,,,0.00,weatherlink.com 1.10,2013-09-14 13:32:00,
2013-09-14 09:47:00,62.9,49.0,29.93,West,263,1.0,8.0,60,0.00,,,0.00,weatherlink.com 1.10,2013-09-14 13:47:00,
2013-09-14 10:02:00,64.0,49.0,29.94,West,265,2.0,7.0,59,0.00,,,0.00,weatherlink.com 1.10,2013-09-14 14:02:00,
2013-09-14 10:17:00,64.5,49.0,29.94,WNW,295,0.0,6.0,57,0.00,,,0.00,weatherlink.com 1.10,2013-09-14 14:17:00,
2013-09-14 10:32:00,65.3,50.0,29.94,West,264,1.0,5.0,58,0.00,,,0.00,weatherlink.com 1.10,2013-09-14 14:32:00,
2013-09-14 10:47:00,65.2,50.0,29.94,WNW,284,2.0,8.0,58,0.00,,,0.00,weatherlink.com 1.10,2013-09-14 14:47:00,
2013-09-14 11:02:00,65.1,50.0,29.94,East,80,1.0,11.0,59,0.00,,,0.00,weatherlink.com 1.10,2013-09-14 15:02:00,
2013-09-14 11:17:00,65.8,49.0,29.94,West,276,1.0,10.0,55,0.00,,,0.00,weatherlink.com 1.10,2013-09-14 15:17:00,
2013-09-14 11:32:00,66.4,50.0,29.94,North,5,2.0,8.0,55,0.00,,,0.00,weatherlink.com 1.10,2013-09-14 15:32:00,
2013-09-14 11:47:00,66.9,50.0,29.94,SW,229,2.0,7.0,54,0.00,,,0.00,weatherlink.com 1.10,2013-09-14 15:47:00,
2013-09-14 12:02:00,66.2,50.0,29.95,NNE,19,1.0,8.0,57,0.00,,,0.00,weatherlink.com 1.10,2013-09-14 16:02:00,
2013-09-14 12:17:00,66.0,50.0,29.94,SW,229,1.0,7.0,56,0.00,,,0.00,weatherlink.com 1.10,2013-09-14 16:17:00,
2013-09-14 12:32:00,65.5,49.0,29.95,WNW,303,2.0,6.0,56,0.00,,,0.00,weatherlink.com 1.10,2013-09-14 16:32:00,
2013-09-14 12:47:00,65.0,50.0,29.95,NW,304,2.0,6.0,58,0.00,,,0.00,weatherlink.com 1.10,2013-09-14 16:47:00,
2013-09-14 13:02:00,65.0,50.0,29.95,NE,39,2.0,7.0,58,0.00,,,0.00,weatherlink.com 1.10,2013-09-14 17:02:00,
2013-09-14 13:17:00,65.3,50.0,29.95,WSW,250,1.0,7.0,58,0.00,,,0.00,weatherlink.com 1.10,2013-09-14 17:17:00,
2013-09-14 13:32:00,65.4,51.0,29.95,WSW,252,0.0,7.0,59,0.00,,,0.00,weatherlink.com 1.10,2013-09-14 17:32:00,
2013-09-14 13:47:00,65.1,49.0,29.95,WSW,243,0.0,9.0,56,0.00,,,0.00,weatherlink.com 1.10,2013-09-14 17:47:00,
2013-09-14 14:02:00,64.8,49.0,29.95,NNW,340,3.0,8.0,57,0.00,,,0.00,weatherlink.com 1.10,2013-09-14 18:02:00,
2013-09-14 14:17:00,64.7,49.0,29.95,WSW,257,3.0,4.0,57,0.00,,,0.00,weatherlink.com 1.10,2013-09-14 18:17:00,
2013-09-14 14:32:00,64.2,49.0,29.96,West,261,3.0,4.0,58,0.00,,,0.00,weatherlink.com 1.10,2013-09-14 18:32:00,
2013-09-14 14:47:00,64.4,49.0,29.95,WNW,282,0.0,7.0,57,0.00,,,0.00,weatherlink.com 1.10,2013-09-14 18:47:00,
2013-09-14 15:02:00,64.8,50.0,29.96,NNW,331,4.0,5.0,59,0.00,,,0.00,weatherlink.com 1.10,2013-09-14 19:02:00,
2013-09-14 15:17:00,65.0,50.0,29.95,WNW,286,0.0,7.0,59,0.00,,,0.00,weatherlink.com 1.10,2013-09-14 19:17:00,
2013-09-14 15:32:00,65.1,50.0,29.96,WNW,301,1.0,5.0,59,0.00,,,0.00,weatherlink.com 1.10,2013-09-14 19:32:00,
2013-09-14 15:47:00,64.9,51.0,29.96,SSW,209,3.0,4.0,60,0.00,,,0.00,weatherlink.com 1.10,2013-09-14 19:47:00,
2013-09-14 16:02:00,65.1,50.0,29.96,West,272,0.0,6.0,59,0.00,,,0.00,weatherlink.com 1.10,2013-09-14 20:02:00,
2013-09-14 16:17:00,64.9,50.0,29.96,West,279,0.0,4.0,59,0.00,,,0.00,weatherlink.com 1.10,2013-09-14 20:17:00,
2013-09-14 16:32:00,65.6,50.0,29.97,WSW,249,2.0,3.0,58,0.00,,,0.00,weatherlink.com 1.10,2013-09-14 20:32:00,
2013-09-14 16:47:00,65.1,50.0,29.97,SSW,208,1.0,9.0,59,0.00,,,0.00,weatherlink.com 1.10,2013-09-14 20:47:00,
2013-09-14 17:02:00,64.1,50.0,29.98,NNW,330,1.0,5.0,60,0.00,,,0.00,weatherlink.com 1.10,2013-09-14 21:02:00,
2013-09-14 17:17:00,64.2,50.0,29.99,West,281,0.0,6.0,60,0.00,,,0.00,weatherlink.com 1.10,2013-09-14 21:17:00,
2013-09-14 17:32:00,64.0,49.0,29.99,West,274,5.0,8.0,59,0.00,,,0.00,weatherlink.com 1.10,2013-09-14 21:32:00,
2013-09-14 17:47:00,63.2,49.0,30.00,West,261,1.0,5.0,60,0.00,,,0.00,weatherlink.com 1.10,2013-09-14 21:47:00,
2013-09-14 18:02:00,61.6,49.0,30.00,NNW,336,1.0,7.0,63,0.00,,,0.00,weatherlink.com 1.10,2013-09-14 22:02:00,
2013-09-14 18:17:00,60.9,49.0,30.01,North,5,2.0,10.0,64,0.00,,,0.00,weatherlink.com 1.10,2013-09-14 22:17:00,
2013-09-14 18:32:00,60.0,48.0,30.01,West,275,1.0,6.0,65,0.00,,,0.00,weatherlink.com 1.10,2013-09-14 22:32:00,
2013-09-14 18:47:00,59.2,49.0,30.02,WSW,250,0.0,2.0,68,0.00,,,0.00,weatherlink.com 1.10,2013-09-14 22:47:00,
2013-09-14 19:03:00,58.4,48.0,30.02,West,267,0.0,4.0,68,0.00,,,0.00,weatherlink.com 1.10,2013-09-14 23:03:00,
2013-09-14 19:18:00,57.8,47.0,30.02,WNW,299,0.0,3.0,68,0.00,,,0.00,weatherlink.com 1.10,2013-09-14 23:18:00,
2013-09-14 19:33:00,57.3,48.0,30.03,WSW,249,0.0,3.0,70,0.00,,,0.00,weatherlink.com 1.10,2013-09-14 23:33:00,
2013-09-14 19:48:00,56.8,47.0,30.04,North,355,0.0,4.0,71,0.00,,,0.00,weatherlink.com 1.10,2013-09-14 23:48:00,
2013-09-14 20:03:00,56.2,47.0,30.04,North,355,0.0,3.0,72,0.00,,,0.00,weatherlink.com 1.10,2013-09-15 00:03:00,
2013-09-14 20:18:00,55.5,47.0,30.05,West,275,0.0,2.0,73,0.00,,,0.00,weatherlink.com 1.10,2013-09-15 00:18:00,
2013-09-14 20:33:00,55.0,47.0,30.05,WNW,301,0.0,1.0,74,0.00,,,0.00,weatherlink.com 1.10,2013-09-15 00:33:00,
2013-09-14 20:48:00,54.5,47.0,30.06,WNW,284,0.0,3.0,75,0.00,,,0.00,weatherlink.com 1.10,2013-09-15 00:48:00,
2013-09-14 21:03:00,54.2,47.0,30.06,WNW,292,0.0,2.0,76,0.00,,,0.00,weatherlink.com 1.10,2013-09-15 01:03:00,
2013-09-14 21:18:00,53.9,47.0,30.07,WNW,286,0.0,2.0,77,0.00,,,0.00,weatherlink.com 1.10,2013-09-15 01:18:00,
2013-09-14 21:33:00,53.5,47.0,30.07,WNW,286,0.0,1.0,78,0.00,,,0.00,weatherlink.com 1.10,2013-09-15 01:33:00,
2013-09-14 21:48:00,53.2,47.0,30.07,WNW,287,0.0,2.0,78,0.00,,,0.00,weatherlink.com 1.10,2013-09-15 01:48:00,
2013-09-14 22:03:00,52.8,46.0,30.07,WNW,287,0.0,0.0,79,0.00,,,0.00,weatherlink.com 1.10,2013-09-15 02:03:00,
2013-09-14 22:18:00,52.4,46.0,30.07,WNW,287,0.0,0.0,80,0.00,,,0.00,weatherlink.com 1.10,2013-09-15 02:18:00,
2013-09-14 22:33:00,52.1,46.0,30.07,WNW,287,0.0,0.0,81,0.00,,,0.00,weatherlink.com 1.10,2013-09-15 02:33:00,
2013-09-14 22:48:00,51.8,46.0,30.07,WNW,287,0.0,0.0,81,0.00,,,0.00,weatherlink.com 1.10,2013-09-15 02:48:00,
2013-09-14 23:03:00,51.5,46.0,30.08,WNW,287,0.0,0.0,82,0.00,,,0.00,weatherlink.com 1.10,2013-09-15 03:03:00,
2013-09-14 23:18:00,51.0,46.0,30.08,WNW,287,0.0,0.0,83,0.00,,,0.00,weatherlink.com 1.10,2013-09-15 03:18:00,
2013-09-14 23:33:00,50.6,46.0,30.08,WNW,287,0.0,0.0,84,0.00,,,0.00,weatherlink.com 1.10,2013-09-15 03:33:00,
2013-09-14 23:48:00,50.1,46.0,30.09,WNW,287,0.0,0.0,85,0.00,,,0.00,weatherlink.com 1.10,2013-09-15 03:48:00,